Regional Weather Roundup
Issued by NWS

Home | Current Version | Previous Version | Text Only | Print | Product List | Glossary Off
Versions: 1 2 3 4 5 6 7 8 9 10 11 12 13 14 15 16 17 18 19 20 21 22 23 24 25 26 27 28 29 30 31 32 33 34 35 36 37 38 39 40 41 42 43 44 45 46 47 48 49 50

000
ASUS45 KBOU 252107
RWRCO

WEATHER ROUNDUP FOR COLORADO
NATIONAL WEATHER SERVICE DENVER/BOULDER CO
300 PM MDT TUE APR 25 2017

NOTE: "FAIR" INDICATES FEW OR NO CLOUDS BELOW 12000 FEET WITH NO
SIGNIFICANT WEATHER AND/OR OBSTRUCTIONS TO VISIBILITY.

COZ001>005-013-030-031-252200-
...NORTHWEST COLORADO...

CITY           SKY/WX    TMP DP  RH WIND       PRES   REMARKS
CRAIG          FAIR      43  34  70 S12       29.71F
HAYDEN         FAIR      37  28  70 SW10      29.72F
MEEKER         CLOUDY    40  31  70 SW5       29.75R
MOUNT WERNER   NOT AVBL
STEAMBOAT SPGS PTSUNNY   37  31  82 E7        29.72F
WALDEN           N/A     39  23  52 SW17G23   29.70R
$$

COZ006>008-011-252200-
...WEST CENTRAL VALLEYS...

CITY           SKY/WX    TMP DP  RH WIND       PRES   REMARKS
GRAND JUNCTION FAIR      55  29  36 N22G30    29.70R
MONTROSE       PTSUNNY   45  33  63 W15       29.72R
EAGLE          PTSUNNY   45  32  61 W13       29.71R
RIFLE          CLOUDY    45  32  60 W6        29.73S
DELTA          FAIR      60  25  26 W26       29.66F
NUCLA          NOT AVBL
$$

COZ017>023-064>068-252200-
...SOUTHWEST COLORADO...

CITY           SKY/WX    TMP DP  RH WIND       PRES   REMARKS
DURANGO        PTSUNNY   49  24  37 NW20G30   29.65R
CORTEZ         LGT RAIN  44  34  67 N12G23    29.70S
PAGOSA SPRINGS FAIR      46  32  58 SE7G20    29.66F
TELLURIDE      LGT SNOW  34  25  70 W13G21    29.76R WCI  25
WOLF CREEK PAS CLOUDY    27  27 100 S18G25    29.75F VSB 1/4 WCI  13
$$

COZ009-010-012-014-032>034-037-058>063-252200-
...CENTRAL COLORADO...

CITY           SKY/WX    TMP DP  RH WIND       PRES   REMARKS
ASPEN          CLOUDY    39  27  62 W6        29.69R
BUENA VISTA    CLOUDY    47  17  29 NW5       29.61F
COPPER MTN     LGT SNOW  27  18  69 NW5       29.74R WCI  21
BERTHOUD PASS  CLOUDY    18   7  62 NW14G31   29.73S WCI   4
COTTONWOOD PAS PTSUNNY   41  19  42 W10G22    29.67S
GUNNISON       FAIR      40  27  59 S6        29.68F
KREMMLING      PTSUNNY   46  28  49 N15G23    29.70R
LEADVILLE      PTSUNNY   36  20  52 N15G23    29.68R
MONARCH PASS   FOG       25  21  86 SW24G38   29.81R VSB 1/2 WCI   9
SALIDA         PTSUNNY   56  15  20 NW18G25   29.66F
SUNLIGHT       SNOW      23  23 100 W5        29.80R VSB 1/4 WCI  17
WILKERSON PASS CLOUDY    32  18  55 CALM      29.73R
$$

COZ069>075-252200-
...SAN LUIS VALLEY/SANGRE DE CRISTO MOUNTAINS...

CITY           SKY/WX    TMP DP  RH WIND       PRES   REMARKS
ALAMOSA        LGT RAIN  38  37  97 N15       29.62R FOG
LA VETA PASS   PTSUNNY   39  32  75 SW6G18    29.77F
SAGUACHE       RAIN      41  32  70 SW7       29.64R
$$

COZ035-036-038>040-252200-
...NORTHERN COLORADO FRONT RANGE...

CITY           SKY/WX    TMP DP  RH WIND       PRES   REMARKS
DENVER INTL AP PTSUNNY   54  27  35 NE9G20    29.59R THUNDER
DMNS CITY PARK   N/A     51  33  51 N9G26     29.59R
AURORA         PTSUNNY   54  30  40 N24G30    29.59R
FRONT RANGE AP PTSUNNY   57  27  30 NE10G21   29.59S
ERIE MUNI ARPT FAIR      57  31  37 N16G22    29.58S
BOULDER MUN AP FAIR      55  32  41 N9        29.58R
CENTENNIAL     PTSUNNY   52  33  48 E15       29.58R
BROOMFIELD     PTSUNNY   54  36  50 E12       29.60R
FORT COLLINS   FAIR      54  35  48 E10       29.60F
LONGMONT       FAIR      58  31  36 N8G18     29.60S
$$

COZ041-046-047-076>085-087-088-252200-
...PIKES PEAK/PALMER DIVIDE AND SOUTHERN FOOTHILLS...

CITY           SKY/WX    TMP DP  RH WIND       PRES   REMARKS
COLO. SPRINGS  LGT RAIN  45  37  73 NE17      29.62R
A. F. ACADEMY  PTSUNNY   37  36  93 E7        29.61F
SCHRIEVER AFB  LGT RAIN  41  37  86 NE15G25   29.62
ELLICOTT       NOT AVBL
FALCON         LGT RAIN  40  33  77 N7        29.64S
FORT CARSON    NOT AVBL
LIMON          LGT RAIN  45  40  82 SW7       29.61R
MONUMENT HILL  PTSUNNY   41  28  60 NE10G16   29.63R
TRINIDAD       LGT RAIN  50  35  56 NE6G17    29.56R
$$

COZ042>045-048>051-090-091-252200-
...NORTHEAST COLORADO...

CITY           SKY/WX    TMP DP  RH WIND       PRES   REMARKS
GREELEY ARPT   LGT RAIN  47  36  65 W13G30    29.64R
AKRON          FAIR      59  32  36 N17G23    29.55F
BURLINGTON     NOT AVBL
WRAY           NOT AVBL
STERLING       PTSUNNY   61  34  36 N17G26    29.54S
HOLYOKE        FAIR      59  45  58 NE15G21   29.58R
FORT MORGAN    FAIR      61  23  23 N21G29    29.56F
$$

COZ086-089-092>099-252200-
...SOUTHEAST COLORADO...

CITY           SKY/WX    TMP DP  RH WIND       PRES   REMARKS
PUEBLO         CLOUDY    53  39  59 CALM      29.55S
LA JUNTA       CLOUDY    58  40  51 E8        29.55S
LAMAR          PTSUNNY   59  40  49 E12       29.52F
SPRINGFIELD      N/A     57  41  55 NE13      29.53F
$$



USA.gov is the U.S. government's official web portal to all federal, state and local government web resources and services.